Regional Weather Roundup
Issued by NWS

Home | Current Version | Previous Version | Text Only | Print | Product List | Glossary Off
Versions: 1 2 3 4 5 6 7 8 9 10 11 12 13 14 15 16 17 18 19 20 21 22 23 24 25 26 27 28 29 30 31 32 33 34 35 36 37 38 39 40 41 42 43 44 45 46 47 48 49 50

000
ASUS43 KIND 162109
RWRIN

WEATHER ROUNDUP FOR INDIANA
NATIONAL WEATHER SERVICE INDIANAPOLIS IN
400 PM EST SAT DEC 16 2017

NOTE: "FAIR" INDICATES FEW OR NO CLOUDS BELOW 12,000 FEET WITH NO
SIGNIFICANT WEATHER AND/OR OBSTRUCTIONS TO VISIBILITY.

* - STATION DOES NOT REPORT WEATHER SUCH AS PRECIPITATION OR FOG.

+ - STATION NOT QUALITY CONTROLLED BY THE NATIONAL WEATHER SERVICE.
    USE DATA WITH CAUTION...ESPECIALLY DEWPOINT AND RELATIVE
    HUMIDITY OBSERVATIONS.

INZ001>003-010>013-019-020-162200-
NORTHWEST INDIANA

CITY           SKY/WX    TMP DP  RH WIND       PRES   REMARKS
GARY /AIRPORT/ MOSUNNY   50  23  34 SW9       29.92R
KNOX *+        SUNNY     45  30  57 SW7       29.92S
LA PORTE +     SUNNY     43  28  54 S5        29.93R
MICHIGAN CITY+ SUNNY     45  28  53 SW7       29.93S
MONTICELLO +   SUNNY     48  26  41 SW10      29.94S
RENSSELAER +   SUNNY     50  16  25 S13       29.93S
VALPARAISO     SUNNY     49  28  44 SW10      29.92S

$$

LMZ046-743>745-162200-
SOUTHERN LAKE MICHIGAN

STATION/POSITION TIME  TEMP    WIND        PRES    WAVE
                       AIR SEA DIR/SP/G            HT
                 (UTC) (F)     (DEG/KT/KT) (MB)    (FT)
BURNS HARBOR     2040   47     230/  4/  9 1013.5R
MICHIGAN CITY    2040   45     360/  5/  6   N/A

$$

INZ004-005-014>016-021>024-162200-
NORTH CENTRAL INDIANA

CITY           SKY/WX    TMP DP  RH WIND       PRES   REMARKS
ELKHART        SUNNY     41  27  56 S3        29.95R
GOSHEN         SUNNY     41  29  62 SW5       29.95R
LOGANSPORT +   SUNNY     46  28  49 SW12G17   29.96S
PERU/GRISSOM   SUNNY     48  27  45 SW15      29.95R
ROCHESTER +    SUNNY     46  32  57 SW6       29.95R
SOUTH BEND     SUNNY     41  29  62 S8        29.94R
WARSAW +       SUNNY     43  30  61 S3        29.94S

$$

INZ006>009-017-018-025>027-162200-
NORTHEAST INDIANA

CITY           SKY/WX    TMP DP  RH WIND       PRES   REMARKS
AUBURN +       CLEAR     43  28  56 SW5       29.97R
FORT WAYNE     MOSUNNY   45  31  58 SW10      29.96S
HUNTINGTON +   SUNNY     46  26  45 SW8       29.96R

$$

INZ028-029-035-036-043>045-051>053-162200-
WEST CENTRAL INDIANA

CITY           SKY/WX    TMP DP  RH WIND       PRES   REMARKS
CRAWFORDSVL +  SUNNY     48  29  49 S13       29.97
GREENCASTLE +  SUNNY     50  28  43 S10       29.99R
LAFAYETTE      SUNNY     49  29  46 SW10      29.96R
TERRE HAUTE    SUNNY     52  29  41 S12       30.00R

$$

INZ030>032-037>040-046>048-054>057-064-065-162200-
CENTRAL INDIANA

CITY           SKY/WX    TMP DP  RH WIND       PRES   REMARKS
ANDERSON       SUNNY     50  28  43 S12G23    29.97
COLUMBUS       SUNNY     50  21  32 SW15G25   30.02S
FRANKFORT +    SUNNY     51  31  44 SW12      29.98R
GREENWOOD *+   SUNNY     55  30  38 SW13G18   30.00R
INDIANAPOLIS   SUNNY     50  29  44 SW17      29.99R
-EAGLE CREEK   SUNNY     50  28  42 SW13G21   29.97R
KOKOMO +       SUNNY     48  29  47 SW15      29.97R
MARION +       SUNNY     47  28  47 SW12      29.97R
MT COMFORT *+  SUNNY     50  34  53 SW17      29.99R
SHELBYVILLE    SUNNY     52  26  36 SW20      29.99S
ZIONSVILLE +   SUNNY     47  29  48 SW14      29.98R

$$

INZ033-034-041-042-049-050-058-059-162200-
EAST CENTRAL INDIANA

CITY           SKY/WX    TMP DP  RH WIND       PRES   REMARKS
MUNCIE         SUNNY     50  27  40 SW16      29.96R
RICHMOND +     SUNNY     46  28  49 SW13      30.00R

$$

INZ060-061-067>069-081>083-085>088-162200-
SOUTHWEST INDIANA

CITY           SKY/WX    TMP DP  RH WIND       PRES   REMARKS
EVANSVILLE     SUNNY     52  29  41 SW16G26   30.07S
HUNTINGBURG +  SUNNY     51  29  42 S15       30.07S
WASHINGTON +   SUNNY     51  27  38 S16       30.03S

$$

INZ062-063-066-070>080-084-089>092-162200-
SOUTH CENTRAL AND SOUTHEAST INDIANA

CITY           SKY/WX    TMP DP  RH WIND       PRES   REMARKS
BEDFORD +      SUNNY     50  27  40 S14       30.04R
BLOOMINGTON    SUNNY     51  27  39 SW16      30.02R
MADISON *+     SUNNY     50  25  37 SW8       30.08S
NORTH VERNON + SUNNY     48  27  43 S13       30.05R
SEYMOUR +      SUNNY     54  28  37 SW15      30.05R

$$





USA.gov is the U.S. government's official web portal to all federal, state and local government web resources and services.